Weather History for Murray, KY

Change the Weather History Date:

Sunday, June 30, 2013

  Actual Average (KPAH) Record (KPAH)
Temperature  
Mean Temperature 68 °F 78 °F  
Max Temperature 75 °F 89 °F 106 °F (1952)
Min Temperature 60 °F 68 °F 53 °F (1950)
Degree Days  
Heating Degree Days 0 0  
Month to date heating degree days 0  
Since 1 June heating degree days 4  
Since 1 July heating degree days 4132  
Cooling Degree Days 2 13  
Month to date cooling degree days 320  
Year to date cooling degree days 492  
Since 1 June cooling degree days 320  
Growing Degree Days 18 (Base 50)    
Moisture  
Dew Point 63 °F    
Average Humidity 84    
Maximum Humidity 100    
Minimum Humidity 57    
Precipitation  
Precipitation 0.00 in 0.14 in 2.02 in (1997)
Month to date precipitation 4.06  
Year to date precipitation 25.28  
Snow  
Snow 0.00 in 0.00 in 0.00 in (2002)
Month to date snowfall 0.0  
Since 1 June snowfall 0.0  
Since 1 July snowfall 9.1  
Snow Depth -    
Sea Level Pressure  
Sea Level Pressure 29.78 in    
Wind  
Wind Speed 5 mph (NNW)    
Max Wind Speed 13 mph    
Max Gust Speed 21 mph    
Visibility 10 miles    
Events      
T = Trace of Precipitation, MM = Missing Value Source: NWS Daily Summary

Daily Weather History Graph

Daily Weather History Graph

Search for Another Location

Airport:

Trip Planner

Search our weather history database for the weather conditions in past years. The results will help you decide how hot, cold, wet, or windy it might be!

Date:

Astronomy

Jun. 30, 2013 Rise Set
Actual Time 5:38 AM CDT 8:16 PM CDT
Civil Twilight 5:07 AM CDT 8:46 PM CDT
Nautical Twilight 4:29 AM CDT 9:24 PM CDT
Astronomical Twilight 3:47 AM CDT 10:06 PM CDT
Moon 12:28 AM CDT (6/30) 1:37 PM CDT (6/30)
Length of Visible Light 15h 39m
Length of Day
14h 37m
Last Quarter, 45% of the Moon is Illuminated
Jun 30
Last Quarter
Jul 8
New
Jul 15
First Quarter
Jul 22
Full
Jul 29
Last Quarter

Hourly Weather History & Observations

Time (CDT) Temp. Dew Point Humidity Pressure Visibility Wind Dir Wind Speed Gust Speed Precip Events Conditions
12:15 AM 62.6 °F 62.6 °F 100% 29.72 in 10.0 mi West 3.5 mph - N/A   Clear
12:35 AM 62.6 °F 62.6 °F 100% 29.73 in 10.0 mi WNW 3.5 mph - N/A   Clear
12:55 AM 62.6 °F 62.6 °F 100% 29.72 in 10.0 mi NW 4.6 mph - N/A   Clear
1:15 AM 62.6 °F 60.8 °F 94% 29.72 in 10.0 mi NW 3.5 mph - N/A   Clear
1:35 AM 62.6 °F 60.8 °F 94% 29.72 in 10.0 mi NW 4.6 mph - N/A   Clear
1:55 AM 62.6 °F 60.8 °F 94% 29.72 in 10.0 mi NW 4.6 mph - N/A   Clear
2:15 AM 62.6 °F 60.8 °F 94% 29.72 in 10.0 mi WNW 5.8 mph - N/A   Clear
2:35 AM 62.6 °F 60.8 °F 94% 29.71 in 10.0 mi NNW 6.9 mph - N/A   Clear
2:55 AM 62.6 °F 60.8 °F 94% 29.71 in 10.0 mi NW 5.8 mph - N/A   Clear
3:15 AM 62.6 °F 60.8 °F 94% 29.70 in 10.0 mi NNW 4.6 mph - N/A   Clear
3:35 AM 62.6 °F 59.0 °F 88% 29.70 in 10.0 mi NW 6.9 mph - N/A   Clear
3:55 AM 62.6 °F 60.8 °F 94% 29.71 in 10.0 mi WNW 4.6 mph - N/A   Scattered Clouds
4:15 AM 62.6 °F 60.8 °F 94% 29.71 in 10.0 mi WNW 4.6 mph - N/A   Scattered Clouds
4:35 AM 62.6 °F 60.8 °F 94% 29.71 in 10.0 mi Calm Calm - N/A   Clear
4:55 AM 60.8 °F 59.0 °F 94% 29.72 in 10.0 mi Calm Calm - N/A   Clear
5:15 AM 60.8 °F 60.8 °F 100% 29.73 in 10.0 mi Calm Calm - N/A   Partly Cloudy
5:35 AM 60.8 °F 60.8 °F 100% 29.74 in 10.0 mi Calm Calm - N/A   Mostly Cloudy
5:55 AM 62.6 °F 62.6 °F 100% 29.75 in 10.0 mi SW 4.6 mph - N/A   Overcast
6:15 AM 62.6 °F 62.6 °F 100% 29.75 in 10.0 mi SW 4.6 mph - N/A   Overcast
6:35 AM 62.6 °F 62.6 °F 100% 29.76 in 10.0 mi WSW 5.8 mph - N/A   Overcast
6:55 AM 62.6 °F 62.6 °F 100% 29.76 in 10.0 mi WNW 4.6 mph - N/A   Overcast
7:15 AM 64.4 °F 62.6 °F 94% 29.76 in 10.0 mi NW 5.8 mph - N/A   Overcast
7:35 AM 64.4 °F 62.6 °F 94% 29.77 in 10.0 mi NW 4.6 mph - N/A   Overcast
7:55 AM 64.4 °F 62.6 °F 94% 29.78 in 10.0 mi NW 3.5 mph - N/A   Overcast
8:15 AM 64.4 °F 62.6 °F 94% 29.78 in 10.0 mi NNW 3.5 mph - N/A   Overcast
8:35 AM 66.2 °F 62.6 °F 88% 29.79 in 10.0 mi NNW 4.6 mph - N/A   Overcast
8:55 AM 66.2 °F 62.6 °F 88% 29.79 in 10.0 mi NNW 6.9 mph - N/A   Overcast
9:15 AM 66.2 °F 62.6 °F 88% 29.79 in 10.0 mi North 8.1 mph - N/A   Overcast
9:35 AM 66.2 °F 62.6 °F 88% 29.79 in 10.0 mi North 6.9 mph - N/A   Overcast
9:55 AM 68.0 °F 62.6 °F 83% 29.79 in 10.0 mi NW 3.5 mph - N/A   Overcast
10:15 AM 68.0 °F 62.6 °F 83% 29.79 in 10.0 mi Calm Calm - N/A   Overcast
10:35 AM 69.8 °F 62.6 °F 78% 29.79 in 10.0 mi WNW 3.5 mph - N/A   Mostly Cloudy
10:55 AM 71.6 °F 62.6 °F 73% 29.80 in 10.0 mi NNW 4.6 mph - N/A   Mostly Cloudy
11:15 AM 71.6 °F 64.4 °F 78% 29.79 in 10.0 mi NW 8.1 mph - N/A   Scattered Clouds
11:35 AM 71.6 °F 62.6 °F 73% 29.80 in 10.0 mi North 6.9 mph - N/A   Mostly Cloudy
11:55 AM 71.6 °F 62.6 °F 73% 29.79 in 10.0 mi NNW 6.9 mph - N/A   Mostly Cloudy
12:15 PM 73.4 °F 62.6 °F 69% 29.79 in 10.0 mi NNW 4.6 mph - N/A   Scattered Clouds
12:35 PM 75.2 °F 62.6 °F 65% 29.79 in 10.0 mi NNW 8.1 mph - N/A   Partly Cloudy
12:55 PM 75.2 °F 62.6 °F 65% 29.79 in 10.0 mi North 8.1 mph - N/A   Scattered Clouds
1:15 PM 75.2 °F 59.0 °F 57% 29.78 in 10.0 mi NW 5.8 mph - N/A   Partly Cloudy
1:35 PM 73.4 °F 64.4 °F 73% 29.78 in 10.0 mi NW 12.7 mph 18.4 mph N/A   Partly Cloudy
1:55 PM 75.2 °F 62.6 °F 65% 29.79 in 10.0 mi NW 12.7 mph 17.3 mph N/A   Partly Cloudy
2:15 PM 75.2 °F 62.6 °F 65% 29.79 in 10.0 mi NW 12.7 mph 16.1 mph N/A   Scattered Clouds
2:35 PM 73.4 °F 62.6 °F 69% 29.78 in 10.0 mi NNW 11.5 mph - N/A   Partly Cloudy
2:55 PM 75.2 °F 62.6 °F 65% 29.77 in 10.0 mi North 8.1 mph - N/A   Partly Cloudy
3:15 PM 75.2 °F 62.6 °F 65% 29.78 in 10.0 mi NW 11.5 mph 20.7 mph N/A   Partly Cloudy
3:35 PM 75.2 °F 60.8 °F 61% 29.79 in 10.0 mi NW 11.5 mph - N/A   Partly Cloudy
3:55 PM 73.4 °F 62.6 °F 69% 29.79 in 10.0 mi NNW 9.2 mph - N/A   Mostly Cloudy
4:15 PM 73.4 °F 62.6 °F 69% 29.78 in 10.0 mi NNW 11.5 mph - N/A   Overcast
4:35 PM 73.4 °F 64.4 °F 73% 29.78 in 10.0 mi NW 9.2 mph - N/A   Mostly Cloudy
4:55 PM 73.4 °F 62.6 °F 69% 29.78 in 10.0 mi North 10.4 mph - N/A   Mostly Cloudy
5:15 PM 75.2 °F 64.4 °F 69% 29.78 in 10.0 mi NNW 12.7 mph - N/A   Scattered Clouds
5:35 PM 73.4 °F 62.6 °F 69% 29.78 in 10.0 mi NW 8.1 mph - N/A   Partly Cloudy
5:55 PM 73.4 °F 62.6 °F 69% 29.78 in 10.0 mi North 10.4 mph - N/A   Partly Cloudy
6:15 PM 73.4 °F 64.4 °F 73% 29.79 in 10.0 mi NW 8.1 mph - N/A   Mostly Cloudy
6:35 PM 71.6 °F 64.4 °F 78% 29.79 in 10.0 mi NNW 8.1 mph - N/A   Overcast
6:55 PM 71.6 °F 64.4 °F 78% 29.80 in 10.0 mi North 4.6 mph - N/A   Mostly Cloudy
7:15 PM 71.6 °F 64.4 °F 78% 29.80 in 10.0 mi NNW 8.1 mph - N/A   Mostly Cloudy
7:35 PM 71.6 °F 64.4 °F 78% 29.80 in 10.0 mi North 10.4 mph - N/A   Mostly Cloudy
7:55 PM 69.8 °F 62.6 °F 78% 29.80 in 10.0 mi North 5.8 mph - N/A   Scattered Clouds
8:15 PM 68.0 °F 62.6 °F 83% 29.81 in 10.0 mi North 6.9 mph - N/A   Mostly Cloudy
8:35 PM 68.0 °F 62.6 °F 83% 29.81 in 10.0 mi North 3.5 mph - N/A   Mostly Cloudy
8:55 PM 68.0 °F 64.4 °F 88% 29.81 in 10.0 mi NNW 3.5 mph - N/A   Partly Cloudy
9:15 PM 66.2 °F 64.4 °F 94% 29.82 in 10.0 mi North 4.6 mph - N/A   Clear
9:35 PM 66.2 °F 64.4 °F 94% 29.83 in 10.0 mi North 6.9 mph - N/A   Scattered Clouds
9:55 PM 66.2 °F 64.4 °F 94% 29.83 in 10.0 mi North 5.8 mph - N/A   Mostly Cloudy
10:15 PM 66.2 °F 64.4 °F 94% 29.84 in 10.0 mi North 5.8 mph - N/A   Scattered Clouds
10:35 PM 66.2 °F 64.4 °F 94% 29.84 in 10.0 mi North 3.5 mph - N/A   Partly Cloudy
10:55 PM 66.2 °F 64.4 °F 94% 29.84 in 10.0 mi NNW 3.5 mph - N/A   Clear
11:15 PM 66.2 °F 64.4 °F 94% 29.83 in 10.0 mi North 3.5 mph - N/A   Clear
11:35 PM 66.2 °F 64.4 °F 94% 29.83 in 10.0 mi NNW 4.6 mph - N/A   Clear
11:55 PM 66.2 °F 64.4 °F 94% 29.83 in 10.0 mi NW 4.6 mph - N/A   Scattered Clouds